period_start,C,m1,H,J0,J1,J2,J3,J4,J5,JA,JB,JC,JD,JJ,JK,JN,#
2016-04-23 00:04:19,0.16,0.00,0.00,13.67,18.57,22.44,15.44,49.64,1030.78,2072.00,3619.89,3212.10,3639.30,600.39,624.42,0.02,0000 0000 0000 0000 000000
2016-04-23 00:09:21,0.15,0.00,0.00,13.69,18.57,22.46,15.34,49.57,1030.78,2071.99,3617.04,3210.75,3637.70,600.06,623.93,0.07,0000 0000 0000 0000 000000
2016-04-23 00:14:22,0.14,0.00,0.00,13.72,18.58,22.51,15.40,49.58,1030.76,2071.97,3614.87,3209.51,3636.21,600.07,623.99,0.12,0000 0000 0000 0000 000000
2016-04-23 00:19:24,0.12,0.01,0.00,13.76,18.61,22.49,15.32,49.36,1030.75,2071.97,3612.98,3208.36,3634.70,599.89,623.67,0.17,0000 0000 0000 0000 000000
2016-04-23 00:24:25,0.10,0.01,0.00,13.80,18.63,22.60,15.28,49.33,1030.74,2071.93,3611.08,3207.11,3633.26,599.68,623.39,0.22,0000 0000 0000 0000 000000
2016-04-23 00:29:26,0.07,0.01,0.00,13.84,18.66,22.59,15.25,49.47,1030.72,2071.70,3609.19,3205.80,3631.71,599.76,623.31,0.27,0000 0000 0000 0000 000000
2016-04-23 00:34:27,0.04,0.02,0.00,13.87,18.69,22.64,15.31,49.42,1030.76,2071.15,3607.26,3204.52,3630.13,600.25,623.80,0.32,0000 0000 0000 0000 000000
2016-04-23 00:39:28,0.07,0.02,0.00,13.93,18.73,22.70,15.33,49.42,1030.78,2071.07,3605.43,3203.38,3628.69,600.06,623.51,0.37,0000 0000 0000 0000 000000
2016-04-23 00:44:30,0.07,0.02,0.00,13.98,18.76,22.78,15.28,49.47,1030.78,2071.02,3603.65,3202.04,3627.16,600.04,623.24,0.42,0000 0000 0000 0000 000000
2016-04-23 00:49:31,0.08,0.03,0.00,14.01,18.80,22.78,15.25,49.37,1030.78,2071.00,3601.80,3200.77,3625.60,599.79,623.03,0.47,0000 0000 0000 0000 000000
2016-04-23 00:54:32,0.07,0.03,0.00,14.05,18.83,22.82,15.32,49.31,1030.78,2071.00,3600.02,3199.52,3624.15,600.09,623.24,0.52,0000 0000 0000 0000 000000
2016-04-23 00:59:34,0.07,0.04,0.00,14.08,18.88,22.88,15.24,49.39,1030.78,2070.98,3598.32,3198.46,3622.66,599.80,622.87,0.57,0000 0000 0000 0000 000000
2016-04-23 01:04:35,0.07,0.04,0.00,14.13,18.91,22.89,15.27,49.42,1030.78,2070.96,3596.57,3197.22,3621.15,599.72,622.71,0.63,0000 0000 0000 0000 000000
2016-04-23 01:09:36,0.03,0.04,0.00,14.18,18.95,22.93,15.26,49.21,1030.78,2070.46,3594.75,3195.96,3619.60,599.98,622.95,0.68,0000 0000 0000 0000 000000
2016-04-23 01:14:38,0.05,0.04,0.00,14.23,18.99,22.96,15.28,49.32,1030.78,2070.08,3592.94,3194.64,3618.13,600.12,622.91,0.73,0000 0000 0000 0000 000000
2016-04-23 01:19:39,0.07,0.05,0.00,14.27,19.03,23.00,15.26,49.48,1030.78,2070.01,3591.22,3193.42,3616.60,600.03,622.65,0.78,0000 0000 0000 0000 000000
2016-04-23 01:24:41,0.06,0.05,0.00,14.32,19.07,23.04,15.29,49.47,1030.81,2070.00,3589.56,3192.31,3615.20,600.08,622.75,0.83,0000 0000 0000 0000 000000
2016-04-23 01:29:42,0.08,0.05,0.00,14.37,19.11,23.11,15.17,49.35,1030.83,2070.00,3587.77,3191.03,3613.74,599.59,622.09,0.88,0000 0000 0000 0000 000000
2016-04-23 01:34:43,0.07,0.06,0.00,14.42,19.15,23.10,15.24,49.39,1030.84,2069.98,3586.03,3189.80,3612.27,599.94,622.37,0.93,0000 0000 0000 0000 000000
2016-04-23 01:39:44,0.07,0.06,0.00,14.47,19.19,23.19,15.28,49.45,1030.81,2069.91,3584.33,3188.58,3610.73,599.82,622.06,0.98,0000 0000 0000 0000 000000
2016-04-23 01:44:46,0.01,0.06,0.00,14.51,19.23,23.22,15.27,49.39,1030.79,2069.48,3582.66,3187.34,3609.29,599.94,622.14,1.03,0000 0000 0000 0000 000000
2016-04-23 01:49:47,0.06,0.07,0.00,14.56,19.28,23.25,15.25,49.44,1030.78,2069.05,3580.92,3185.97,3607.67,599.87,622.00,1.08,0000 0000 0000 0000 000000
2016-04-23 01:54:49,0.07,0.07,0.00,14.62,19.32,23.38,15.29,49.49,1030.80,2069.00,3579.11,3184.73,3606.16,600.11,622.10,1.13,0000 0000 0000 0000 000000
2016-04-23 01:59:50,0.08,0.07,0.00,14.67,19.37,23.35,15.29,49.49,1030.79,2069.00,3577.33,3183.47,3604.57,599.80,621.62,1.18,0000 0000 0000 0000 000000
2016-04-23 02:04:51,0.07,0.08,0.00,14.73,19.42,23.37,15.30,49.49,1030.79,2068.99,3575.54,3182.16,3603.07,600.22,621.80,1.23,0000 0000 0000 0000 000000
2016-04-23 02:09:52,0.09,0.08,0.00,14.78,19.47,23.43,15.26,49.52,1030.79,2068.91,3573.60,3180.76,3601.43,600.14,621.68,1.28,0000 0000 0000 0000 000000
2016-04-23 02:14:54,0.02,0.08,0.00,14.84,19.51,23.46,15.30,49.53,1030.80,2068.31,3571.78,3179.46,3599.80,600.43,621.92,1.33,0000 0000 0000 0000 000000
2016-04-23 02:19:55,0.06,0.09,0.00,14.90,19.56,23.48,15.23,49.49,1030.88,2068.07,3569.92,3178.15,3598.32,599.92,621.26,1.38,0000 0000 0000 0000 000000
2016-04-23 02:24:56,0.09,0.09,0.00,14.96,19.60,23.53,15.24,49.34,1030.97,2068.01,3568.04,3176.73,3596.65,599.84,621.25,1.43,0000 0000 0000 0000 000000
2016-04-23 02:29:57,0.08,0.10,0.00,15.01,19.65,23.58,15.28,49.46,1030.96,2068.00,3566.04,3175.39,3594.98,600.03,621.20,1.48,0000 0000 0000 0000 000000
2016-04-23 02:34:59,0.08,0.10,0.00,15.07,19.70,23.63,15.28,49.52,1031.05,2067.99,3564.13,3174.01,3593.37,600.37,621.50,1.53,0000 0000 0000 0000 000000
2016-04-23 02:40:00,0.07,0.10,0.00,15.12,19.74,23.67,15.29,49.44,1031.17,2067.82,3562.21,3172.62,3591.71,600.17,621.20,1.58,0000 0000 0000 0000 000000
2016-04-23 02:45:01,0.02,0.11,0.00,15.19,19.79,23.76,15.28,49.44,1031.16,2067.21,3560.28,3171.22,3590.02,600.32,621.32,1.63,0000 0000 0000 0000 000000
2016-04-23 02:50:02,0.08,0.11,0.00,15.26,19.83,23.80,15.30,49.43,1031.25,2067.02,3558.24,3169.76,3588.37,600.04,620.89,1.68,0000 0000 0000 0000 000000
2016-04-23 02:55:04,0.09,0.11,0.00,15.31,19.88,23.86,15.23,49.48,1031.26,2067.00,3556.21,3168.36,3586.62,600.12,620.88,1.73,0000 0000 0000 0000 000000
2016-04-23 03:00:05,0.09,0.12,0.00,15.37,19.93,23.87,15.19,49.48,1031.25,2066.97,3554.15,3166.85,3584.88,600.04,620.61,1.78,0000 0000 0000 0000 000000
2016-04-23 03:05:07,0.08,0.12,0.00,15.44,19.97,23.89,15.25,49.48,1031.26,2066.93,3552.14,3165.41,3583.31,600.20,620.63,1.83,0000 0000 0000 0000 000000
2016-04-23 03:10:08,0.04,0.12,0.00,15.49,20.02,23.95,15.27,49.34,1031.26,2066.33,3549.89,3163.80,3581.63,600.18,620.56,1.88,0000 0000 0000 0000 000000
2016-04-23 03:15:09,0.08,0.13,0.00,15.57,20.07,23.99,15.23,49.43,1031.27,2066.04,3547.79,3162.31,3579.80,600.02,620.21,1.93,0000 0000 0000 0000 000000
2016-04-23 03:20:10,0.09,0.13,0.00,15.62,20.11,24.04,15.23,49.39,1031.27,2066.00,3545.64,3160.71,3577.99,600.01,620.26,1.98,0000 0000 0000 0000 000000
2016-04-23 03:25:12,0.08,0.14,0.00,15.69,20.16,24.07,15.11,49.31,1031.27,2066.00,3543.52,3159.29,3576.23,599.88,619.76,2.03,0000 0000 0000 0000 000000
2016-04-23 03:30:13,0.09,0.14,0.00,15.76,20.21,24.13,15.18,49.39,1031.27,2065.96,3541.42,3157.73,3574.45,600.28,620.06,2.08,0000 0000 0000 0000 000000
2016-04-23 03:35:14,0.03,0.15,0.00,15.83,20.26,24.14,15.17,49.39,1031.28,2065.44,3539.25,3156.20,3572.57,600.03,619.71,2.13,0000 0000 0000 0000 000000
2016-04-23 03:40:16,0.08,0.15,0.00,15.90,20.31,24.17,15.25,49.42,1031.30,2065.04,3537.13,3154.63,3570.76,600.14,619.65,2.18,0000 0000 0000 0000 000000
2016-04-23 03:45:17,0.09,0.15,0.00,15.97,20.37,24.18,15.22,49.39,1031.32,2065.00,3534.96,3152.99,3568.91,599.94,619.40,2.23,0000 0000 0000 0000 000000
2016-04-23 03:50:18,0.09,0.16,0.00,16.04,20.42,24.25,15.21,49.42,1031.39,2064.99,3532.83,3151.53,3567.13,600.01,619.27,2.28,0000 0000 0000 0000 000000
2016-04-23 03:55:20,0.08,0.16,0.00,16.10,20.48,24.28,15.15,49.27,1031.43,2064.92,3530.79,3150.01,3565.37,600.05,619.21,2.33,0000 0000 0000 0000 000000
2016-04-23 04:00:21,0.04,0.16,0.00,16.17,20.53,24.34,15.12,49.34,1031.38,2064.45,3528.76,3148.57,3563.63,599.85,618.93,2.38,0000 0000 0000 0000 000000
2016-04-23 04:05:22,0.07,0.17,0.00,16.25,20.59,24.37,15.12,49.19,1031.33,2064.03,3526.58,3146.92,3561.73,599.96,618.81,2.43,0000 0000 0000 0000 000000
2016-04-23 04:10:23,0.09,0.17,0.00,16.32,20.65,24.41,15.10,49.16,1031.33,2064.00,3524.55,3145.45,3559.95,599.80,618.47,2.48,0000 0000 0000 0000 000000
2016-04-23 04:15:24,0.10,0.18,0.00,16.38,20.71,24.44,15.19,49.20,1031.36,2063.99,3522.32,3143.84,3558.10,600.16,618.62,2.53,0000 0000 0000 0000 000000
2016-04-23 04:20:26,0.04,0.18,0.00,16.45,20.77,24.52,15.15,49.21,1031.32,2063.55,3520.16,3142.22,3556.15,599.94,618.27,2.58,0000 0000 0000 0000 000000
2016-04-23 04:25:27,0.07,0.18,0.00,16.50,20.83,24.56,15.20,49.18,1031.31,2063.07,3518.07,3140.57,3554.21,600.13,618.34,2.63,0000 0000 0000 0000 000000
2016-04-23 04:30:28,0.09,0.19,0.00,16.57,20.89,24.62,15.08,49.17,1031.29,2063.00,3515.86,3138.92,3552.33,599.78,617.82,2.68,0000 0000 0000 0000 000000
2016-04-23 04:35:30,0.10,0.19,0.00,16.64,20.95,24.68,15.07,49.21,1031.29,2062.98,3513.58,3137.27,3550.33,599.78,617.68,2.73,0000 0000 0000 0000 000000
2016-04-23 04:40:31,0.08,0.20,0.00,16.71,21.01,24.72,15.16,49.16,1031.39,2062.81,3511.22,3135.58,3548.30,600.03,617.91,2.78,0000 0000 0000 0000 000000
2016-04-23 04:45:32,0.05,0.20,0.00,16.77,21.07,24.72,15.04,49.11,1031.36,2062.21,3508.82,3133.93,3546.22,599.64,617.35,2.83,0000 0000 0000 0000 000000
2016-04-23 04:50:33,0.10,0.21,0.00,16.82,21.13,24.82,15.09,49.13,1031.32,2062.01,3506.35,3132.12,3544.11,600.19,617.74,2.88,0000 0000 0000 0000 000000
2016-04-23 04:55:34,0.11,0.21,0.00,16.87,21.19,24.89,15.07,49.08,1031.33,2061.99,3503.88,3130.31,3541.95,599.83,617.22,2.94,0000 0000 0000 0000 000000
2016-04-23 05:00:36,0.10,0.22,0.00,16.95,21.25,24.95,15.04,49.12,1031.37,2061.91,3501.40,3128.50,3539.82,599.85,617.20,2.99,0000 0000 0000 0000 000000
2016-04-23 05:05:37,0.05,0.22,0.00,17.01,21.31,25.01,15.13,49.06,1031.43,2061.25,3498.86,3126.62,3537.62,599.93,617.10,3.04,0000 0000 0000 0000 000000
2016-04-23 05:10:38,0.11,0.23,0.00,17.07,21.36,25.04,15.10,49.05,1031.58,2061.01,3496.27,3124.67,3535.39,599.82,616.99,3.09,0000 0000 0000 0000 000000
2016-04-23 05:15:40,0.12,0.23,0.00,17.12,21.42,25.14,15.13,49.08,1031.72,2061.00,3493.71,3122.79,3533.21,600.11,617.24,3.14,0000 0000 0000 0000 000000
2016-04-23 05:20:41,0.11,0.24,0.00,17.19,21.48,25.16,15.09,49.04,1031.73,2060.96,3491.21,3120.95,3531.09,599.93,617.01,3.19,0000 0000 0000 0000 000000
2016-04-23 05:25:42,0.05,0.24,0.00,17.25,21.54,25.20,15.13,49.10,1031.75,2060.42,3488.61,3118.98,3528.80,599.91,616.86,3.24,0000 0000 0000 0000 000000
2016-04-23 05:30:43,0.09,0.25,0.00,17.30,21.60,25.27,15.11,49.05,1031.75,2060.05,3486.07,3117.15,3526.61,600.04,616.81,3.29,0000 0000 0000 0000 000000
2016-04-23 05:35:45,0.13,0.25,0.00,17.36,21.65,25.35,15.11,49.11,1031.75,2060.00,3483.38,3115.19,3524.28,600.02,616.69,3.34,0000 0000 0000 0000 000000
2016-04-23 05:40:46,0.11,0.26,0.00,17.40,21.71,25.41,15.02,49.08,1031.75,2059.97,3480.71,3113.24,3522.06,599.65,616.25,3.39,0000 0000 0000 0000 000000
2016-04-23 05:45:47,0.08,0.26,0.00,17.46,21.76,25.44,15.09,48.96,1031.76,2059.71,3478.10,3111.29,3519.83,600.07,616.50,3.44,0000 0000 0000 0000 000000
2016-04-23 05:50:48,0.08,0.27,0.00,17.51,21.81,25.49,15.06,48.98,1031.76,2059.15,3475.39,3109.29,3517.61,599.73,616.05,3.49,0000 0000 0000 0000 000000
2016-04-23 05:55:50,0.13,0.27,0.00,17.58,21.86,25.55,15.05,49.01,1031.76,2059.00,3472.56,3107.19,3515.18,599.81,616.07,3.54,0000 0000 0000 0000 000000
2016-04-23 06:00:51,0.13,0.28,0.00,17.64,21.92,25.59,15.06,48.93,1031.76,2059.00,3469.68,3105.11,3512.73,599.92,616.04,3.59,0000 0000 0000 0000 000000
2016-04-23 06:05:52,0.11,0.29,0.00,17.68,21.97,25.65,15.09,48.94,1031.76,2058.84,3466.79,3102.91,3510.25,600.12,616.11,3.64,0000 0000 0000 0000 000000
2016-04-23 06:10:54,0.07,0.29,0.00,17.74,22.02,25.74,15.03,48.88,1031.76,2058.16,3463.81,3100.71,3507.71,599.74,615.53,3.69,0000 0000 0000 0000 000000
2016-04-23 06:15:55,0.14,0.30,0.00,17.79,22.08,25.77,15.15,48.83,1031.76,2058.00,3460.89,3098.47,3505.16,600.28,616.11,3.74,0000 0000 0000 0000 000000
2016-04-23 06:20:56,0.13,0.30,0.00,17.84,22.13,25.85,15.05,48.79,1031.76,2057.99,3457.95,3096.35,3502.67,600.13,615.70,3.79,0000 0000 0000 0000 000000
2016-04-23 06:25:58,0.14,0.31,0.00,17.89,22.18,25.90,14.95,48.87,1031.76,2057.97,3455.07,3094.17,3500.12,599.97,615.45,3.84,0000 0000 0000 0000 000000
2016-04-23 06:30:59,0.11,0.32,0.00,17.96,22.23,25.90,15.05,48.78,1031.76,2057.72,3451.90,3091.77,3497.43,600.25,615.66,3.89,0000 0000 0000 0000 000000
2016-04-23 06:36:00,0.10,0.32,0.00,18.01,22.28,25.97,15.08,48.80,1031.77,2057.19,3448.87,3089.53,3494.84,600.26,615.59,3.94,0000 0000 0000 0000 000000
2016-04-23 06:41:02,0.13,0.33,0.00,18.06,22.33,26.03,15.08,48.84,1031.76,2057.01,3445.73,3087.25,3492.20,600.04,615.27,3.99,0000 0000 0000 0000 000000
2016-04-23 06:46:03,0.16,0.34,0.00,18.10,22.39,26.12,14.99,48.79,1031.80,2057.00,3442.53,3084.89,3489.41,599.99,615.14,4.04,0000 0000 0000 0000 000000
2016-04-23 06:51:05,0.14,0.34,0.00,18.16,22.44,26.18,15.02,48.94,1032.03,2056.96,3439.36,3082.43,3486.64,599.83,614.91,4.09,0000 0000 0000 0000 000000
2016-04-23 06:56:06,0.09,0.35,0.00,18.23,22.49,26.20,14.99,48.67,1032.04,2056.50,3436.33,3080.20,3484.00,599.69,614.61,4.14,0000 0000 0000 0000 000000
2016-04-23 07:01:07,0.11,0.35,0.00,18.29,22.54,26.25,15.02,48.73,1031.98,2056.06,3433.30,3077.95,3481.39,599.87,614.49,4.19,0000 0000 0000 0000 000000
2016-04-23 07:06:08,0.14,0.36,0.00,18.35,22.59,26.26,15.05,48.75,1032.05,2056.00,3430.21,3075.61,3478.76,599.71,614.44,4.24,0000 0000 0000 0000 000000
2016-04-23 07:11:09,0.15,0.37,0.00,18.40,22.64,26.33,15.04,48.82,1032.19,2055.99,3427.13,3073.30,3476.08,599.97,614.68,4.29,0000 0000 0000 0000 000000
2016-04-23 07:16:10,0.13,0.38,0.00,18.45,22.69,26.43,14.93,48.70,1032.16,2055.85,3423.88,3070.96,3473.31,599.96,614.70,4.34,0000 0000 0000 0000 000000
2016-04-23 07:21:12,0.10,0.38,0.00,18.51,22.74,26.43,15.00,48.77,1032.09,2055.18,3420.46,3068.49,3470.46,599.70,614.08,4.39,0000 0000 0000 0000 000000
2016-04-23 07:26:13,0.16,0.39,0.00,18.56,22.79,26.48,14.97,48.76,1032.12,2055.02,3416.93,3065.76,3467.32,599.95,614.28,4.44,0000 0000 0000 0000 000000
2016-04-23 07:31:14,0.16,0.40,0.00,18.63,22.84,26.56,14.96,48.68,1032.20,2055.00,3413.53,3063.15,3464.33,599.51,613.73,4.49,0000 0000 0000 0000 000000
2016-04-23 07:36:16,0.15,0.40,0.00,18.69,22.89,26.59,15.03,48.65,1032.22,2054.99,3410.29,3060.66,3461.47,600.11,614.20,4.54,0000 0000 0000 0000 000000
2016-04-23 07:41:17,0.17,0.41,0.00,18.73,22.94,26.63,15.02,48.65,1032.24,2054.93,3406.64,3057.95,3458.38,600.00,614.14,4.59,0000 0000 0000 0000 000000
2016-04-23 07:46:18,0.10,0.42,0.00,18.80,22.99,26.65,15.06,48.85,1032.24,2054.33,3402.95,3055.19,3455.26,600.17,614.08,4.64,0000 0000 0000 0000 000000
2016-04-23 07:51:19,0.17,0.43,0.00,18.88,23.04,26.74,14.96,48.64,1032.24,2054.03,3399.19,3052.32,3452.05,599.70,613.34,4.69,0000 0000 0000 0000 000000
2016-04-23 07:56:20,0.18,0.44,0.00,18.93,23.09,26.79,14.96,48.64,1032.24,2054.00,3395.31,3049.43,3448.77,599.97,613.54,4.74,0000 0000 0000 0000 000000
2016-04-23 08:01:22,0.17,0.45,0.00,19.00,23.14,26.81,14.97,48.71,1032.24,2053.98,3391.72,3046.63,3445.61,599.47,613.02,4.79,0000 0000 0000 0000 000000
2016-04-23 08:06:23,0.15,0.46,0.00,19.07,23.19,26.89,14.93,48.73,1032.25,2053.80,3388.23,3043.87,3442.42,599.90,613.25,4.84,0000 0000 0000 0000 000000
2016-04-23 08:11:25,0.12,0.46,0.00,19.11,23.24,26.94,15.03,48.74,1032.32,2053.16,3384.56,3041.17,3439.26,600.03,613.33,4.89,0000 0000 0000 0000 000000
2016-04-23 08:16:26,0.19,0.47,0.00,19.16,23.29,26.97,14.96,48.85,1032.57,2053.01,3380.69,3038.16,3435.90,600.03,613.42,4.94,0000 0000 0000 0000 000000
2016-04-23 08:21:27,0.19,0.48,0.00,19.21,23.34,27.00,14.99,48.71,1032.66,2053.00,3376.71,3035.14,3432.48,599.93,613.29,4.99,0000 0000 0000 0000 000000
2016-04-23 08:26:29,0.19,0.49,0.00,19.27,23.39,27.06,15.00,48.77,1032.72,2052.98,3372.67,3032.14,3429.05,600.09,613.30,5.04,0000 0000 0000 0000 000000
2016-04-23 08:31:30,0.18,0.50,0.00,19.32,23.44,27.08,14.94,48.63,1032.73,2052.72,3368.21,3028.89,3425.40,599.96,613.10,5.09,0000 0000 0000 0000 000000
2016-04-23 08:36:31,0.12,0.51,0.00,19.37,23.49,27.13,14.92,48.75,1032.73,2052.15,3364.15,3026.01,3422.13,599.66,612.59,5.14,0000 0000 0000 0000 000000
2016-04-23 08:41:32,0.17,0.51,0.00,19.40,23.54,27.18,14.95,48.76,1032.73,2052.01,3360.61,3023.43,3419.12,599.89,612.72,5.19,0000 0000 0000 0000 000000
2016-04-23 08:46:34,0.19,0.52,0.00,19.44,23.59,27.24,14.91,48.73,1032.73,2052.00,3356.77,3020.52,3415.87,599.94,612.79,5.25,0000 0000 0000 0000 000000
2016-04-23 08:51:35,0.18,0.53,0.00,19.48,23.64,27.29,14.96,48.72,1032.74,2051.92,3352.91,3017.66,3412.58,600.17,612.91,5.30,0000 0000 0000 0000 000000
2016-04-23 08:56:36,0.13,0.54,0.00,19.49,23.69,27.36,15.01,48.74,1032.74,2051.32,3348.90,3014.67,3409.16,599.87,612.64,5.35,0000 0000 0000 0000 000000
2016-04-23 09:01:38,0.16,0.55,0.00,19.52,23.74,27.40,14.98,48.67,1032.74,2051.03,3345.01,3011.87,3405.96,599.98,612.67,5.40,0000 0000 0000 0000 000000
2016-04-23 09:06:40,0.16,0.56,0.00,19.55,23.78,27.48,14.91,48.53,1032.76,2051.00,3341.73,3009.36,3403.13,599.73,612.40,5.45,0000 0000 0000 0000 000000
2016-04-23 09:11:41,0.17,0.57,0.00,19.58,23.83,27.57,14.93,48.61,1032.76,2050.99,3338.18,3006.85,3400.11,599.78,612.35,5.50,0000 0000 0000 0000 000000
2016-04-23 09:16:42,0.18,0.57,0.00,19.62,23.88,27.63,15.02,48.72,1032.88,2050.95,3334.44,3004.17,3396.92,600.38,612.96,5.55,0000 0000 0000 0000 000000
2016-04-23 09:21:44,0.14,0.58,0.00,19.64,23.92,27.71,14.98,48.71,1032.86,2050.53,3330.57,3001.34,3393.76,600.05,612.61,5.60,0000 0000 0000 0000 000000
2016-04-23 09:26:45,0.14,0.59,0.00,19.68,23.96,27.80,14.98,48.65,1032.97,2050.07,3326.91,2998.58,3390.73,599.92,612.45,5.65,0000 0000 0000 0000 000000
2016-04-23 09:31:46,0.18,0.60,0.00,19.72,24.00,27.86,14.98,48.64,1033.00,2050.00,3323.20,2995.82,3387.68,600.23,612.59,5.70,0000 0000 0000 0000 000000
2016-04-23 09:36:47,0.19,0.61,0.00,19.74,24.04,27.89,14.99,48.59,1033.16,2049.99,3319.27,2992.98,3384.39,600.03,612.52,5.75,0000 0000 0000 0000 000000
2016-04-23 09:41:49,0.19,0.62,0.00,19.77,24.07,27.93,15.02,48.67,1033.21,2049.97,3315.45,2990.19,3381.18,600.00,612.44,5.80,0000 0000 0000 0000 000000
2016-04-23 09:46:50,0.16,0.63,0.00,19.77,24.10,27.98,15.01,48.58,1033.22,2049.74,3311.71,2987.42,3378.07,600.35,612.80,5.85,0000 0000 0000 0000 000000
2016-04-23 09:51:51,0.13,0.63,0.00,19.77,24.12,28.04,15.02,48.63,1033.22,2049.23,3307.85,2984.72,3375.00,600.07,612.45,5.90,0000 0000 0000 0000 000000
2016-04-23 09:56:52,0.16,0.64,0.00,19.76,24.15,28.09,14.95,48.57,1033.22,2049.04,3304.22,2982.11,3372.05,599.89,612.37,5.95,0000 0000 0000 0000 000000
2016-04-23 10:01:54,0.16,0.65,0.00,19.76,24.17,28.16,15.05,48.47,1033.23,2049.01,3300.87,2979.64,3369.21,600.39,613.00,6.00,0000 0000 0000 0000 000000
2016-04-23 10:06:55,0.17,0.66,0.00,19.76,24.19,28.20,15.03,48.45,1033.23,2049.00,3297.47,2977.17,3366.31,600.34,612.83,6.05,0000 0000 0000 0000 000000
2016-04-23 10:11:56,0.16,0.67,0.00,19.75,24.20,28.29,15.02,48.42,1033.23,2049.00,3294.11,2974.73,3363.50,599.98,612.40,6.10,0000 0000 0000 0000 000000
2016-04-23 10:16:57,0.16,0.67,0.00,19.75,24.22,28.29,15.01,48.34,1033.24,2048.98,3290.74,2972.27,3360.74,599.91,612.40,6.15,0000 0000 0000 0000 000000
2016-04-23 10:21:58,0.17,0.68,0.00,19.73,24.24,28.38,15.03,48.28,1033.24,2048.97,3287.40,2969.82,3357.90,600.18,612.72,6.20,0000 0000 0000 0000 000000
2016-04-23 10:26:59,0.14,0.69,0.00,19.71,24.25,28.44,15.01,48.29,1033.24,2048.88,3284.16,2967.51,3355.28,600.04,612.68,6.25,0000 0000 0000 0000 000000
2016-04-23 10:32:00,0.10,0.70,0.00,19.72,24.26,28.45,15.05,48.45,1033.24,2048.41,3281.14,2965.31,3352.70,600.03,612.65,6.30,0000 0000 0000 0000 000000
2016-04-23 10:37:01,0.13,0.70,0.00,19.72,24.27,28.44,15.04,48.33,1033.27,2048.13,3278.08,2963.09,3350.16,600.15,612.67,6.35,0000 0000 0000 0000 000000
2016-04-23 10:42:03,0.15,0.71,0.00,19.70,24.27,28.47,14.94,48.22,1033.31,2048.05,3274.89,2960.80,3347.55,600.09,612.76,6.40,0000 0000 0000 0000 000000
2016-04-23 10:47:04,0.14,0.72,0.00,19.68,24.27,28.56,15.01,48.21,1033.43,2048.07,3271.77,2958.70,3345.22,599.88,612.65,6.45,0000 0000 0000 0000 000000
2016-04-23 10:52:05,0.16,0.72,0.00,19.68,24.27,28.51,14.98,48.17,1033.55,2048.10,3268.40,2956.41,3342.58,599.91,612.77,6.50,0000 0000 0000 0000 000000
2016-04-23 10:57:06,0.16,0.73,0.00,19.67,24.27,28.53,14.99,48.14,1033.46,2048.09,3265.07,2954.03,3339.87,599.78,612.54,6.55,0000 0000 0000 0000 000000
2016-04-23 11:02:08,0.13,0.74,0.00,19.68,24.25,28.42,15.05,48.14,1033.52,2048.06,3262.16,2951.86,3337.38,599.94,612.81,6.60,0000 0000 0000 0000 000000
2016-04-23 11:07:09,0.15,0.75,0.00,19.67,24.25,28.47,15.06,48.24,1033.67,2048.13,3259.19,2949.86,3335.13,599.90,612.84,6.65,0000 0000 0000 0000 000000
2016-04-23 11:12:10,0.15,0.76,0.00,19.59,24.25,28.51,15.08,48.33,1033.66,2048.22,3256.29,2947.91,3332.92,600.47,613.56,6.70,0000 0000 0000 0000 000000
2016-04-23 11:17:11,0.15,0.76,0.00,19.54,24.22,28.49,15.04,48.32,1033.65,2048.40,3253.52,2946.01,3330.72,599.98,613.17,6.75,0000 0000 0000 0000 000000
2016-04-23 11:22:13,0.11,0.77,0.00,19.50,24.22,28.47,15.04,48.48,1033.47,2048.29,3250.84,2944.07,3328.48,600.29,613.46,6.80,0000 0000 0000 0000 000000
2016-04-23 11:27:14,0.15,0.78,0.00,19.45,24.21,28.50,15.00,48.42,1033.40,2048.36,3248.09,2942.11,3326.26,599.97,613.20,6.85,0000 0000 0000 0000 000000
2016-04-23 11:32:15,0.14,0.78,0.00,19.40,24.20,28.48,15.09,48.33,1033.57,2048.46,3245.31,2940.20,3324.04,600.35,613.83,6.90,0000 0000 0000 0000 000000
2016-04-23 11:37:16,0.16,0.79,0.00,19.37,24.18,28.45,15.02,48.39,1033.53,2048.71,3242.48,2938.17,3321.73,600.02,613.49,6.95,0000 0000 0000 0000 000000
2016-04-23 11:42:17,0.13,0.80,0.00,19.32,24.17,28.39,15.06,48.42,1033.68,2048.77,3239.65,2936.22,3319.48,600.22,613.89,7.00,0000 0000 0000 0000 000000
2016-04-23 11:47:18,0.15,0.81,0.00,19.26,24.15,28.37,15.06,48.55,1033.61,2048.91,3236.77,2934.24,3317.24,600.03,613.78,7.05,0000 0000 0000 0000 000000
2016-04-23 11:52:20,0.14,0.82,0.00,19.24,24.13,28.33,15.15,48.64,1033.53,2048.98,3233.90,2932.20,3314.88,600.35,614.21,7.10,0000 0000 0000 0000 000000
2016-04-23 11:57:21,0.14,0.82,0.00,19.21,24.11,28.28,14.98,48.42,1033.56,2048.98,3231.12,2930.12,3312.56,599.78,613.44,7.15,0000 0000 0000 0000 000000
2016-04-23 12:02:22,0.14,0.83,0.00,19.15,24.10,28.22,15.06,48.38,1033.54,2048.98,3228.26,2928.22,3310.34,599.98,613.96,7.20,0000 0000 0000 0000 000000
2016-04-23 12:07:24,0.13,0.84,0.00,19.13,24.07,28.16,15.03,48.29,1033.39,2048.99,3225.49,2926.31,3308.13,600.08,613.99,7.25,0000 0000 0000 0000 000000
2016-04-23 12:12:25,0.14,0.84,0.00,19.09,24.06,28.09,15.08,48.48,1033.37,2048.99,3222.72,2924.33,3305.87,600.24,614.28,7.30,0000 0000 0000 0000 000000
2016-04-23 12:17:26,0.12,0.85,0.00,19.04,24.03,28.05,14.98,48.46,1033.33,2048.99,3220.01,2922.49,3303.79,599.94,614.06,7.35,0000 0000 0000 0000 000000
2016-04-23 12:22:28,0.13,0.86,0.00,19.00,24.01,28.02,15.10,48.47,1033.51,2049.01,3217.49,2920.70,3301.73,600.12,614.34,7.40,0000 0000 0000 0000 000000
2016-04-23 12:27:29,0.12,0.86,0.00,18.98,23.99,27.99,15.09,48.49,1033.56,2049.02,3215.11,2919.01,3299.82,600.25,614.57,7.45,0000 0000 0000 0000 000000
2016-04-23 12:32:30,0.10,0.87,0.00,18.95,23.97,27.91,15.05,48.48,1033.56,2049.04,3212.85,2917.40,3297.93,599.99,614.29,7.50,0000 0000 0000 0000 000000
2016-04-23 12:37:31,0.13,0.87,0.00,18.89,23.95,27.88,15.10,48.58,1033.53,2049.13,3210.57,2915.73,3296.01,600.07,614.51,7.55,0000 0000 0000 0000 000000
2016-04-23 12:42:33,0.15,0.88,0.00,18.87,23.92,27.80,15.08,48.60,1033.47,2049.36,3208.13,2914.00,3294.00,599.93,614.50,7.60,0000 0000 0000 0000 000000
2016-04-23 12:47:34,0.15,0.89,0.00,18.81,23.90,27.78,15.02,48.63,1033.37,2049.62,3205.55,2912.23,3291.90,599.97,614.53,7.65,0000 0000 0000 0000 000000
2016-04-23 12:52:35,0.16,0.90,0.00,18.77,23.88,27.77,15.10,48.62,1033.24,2049.88,3202.94,2910.31,3289.77,600.02,614.59,7.71,0000 0000 0000 0000 000000
2016-04-23 12:57:36,0.12,0.90,0.00,18.73,23.86,27.70,15.06,48.49,1033.22,2049.96,3200.50,2908.58,3287.78,599.91,614.48,7.76,0000 0000 0000 0000 000000
2016-04-23 13:02:37,0.12,0.91,0.00,18.68,23.83,27.71,15.10,48.63,1033.22,2049.98,3198.17,2906.79,3285.78,600.52,615.23,7.81,0000 0000 0000 0000 000000